Location: Jouancy
(47.6827°N, 4.0328°E)
Time: 10:23:29
(UTC+00:00)

Daily predictions for brighter satellites

Satellite Brightness Start Highest point End
(mag) Time Altitude Azimuth Time Altitude Azimuth Time Altitude Azimuth
Cosmos 1980 3.7 18:32:02 10° SSW 18:37:41 75° ESE 18:43:23 10° NNE
S3M 4.1 18:33:54 10° S 18:40:09 62° E 18:46:28 10° NNE
Cosmos 2084 3.9 18:37:25 10° SW 18:41:53 70° NW 18:46:22 10° NE
Ariane Rocket 3.1 18:37:14 10° SSE 18:42:12 58° ENE 18:47:11 10° N
STARLINK-1224 4.2 18:38:37 10° SSW 18:42:20 37° SE 18:46:04 10° ENE
YAOGAN 1 3.7 18:38:11 10° S 18:42:23 49° W 18:46:37 10° NNW
BREEZE-M DEB (TANK) 4.2 18:27:15 10° WNW 18:42:57 60° SW 18:46:42 10° SE
Cosmos 1386 Rocket 4.4 18:37:15 10° N 18:43:18 67° ENE 18:49:16 10° SSE
SL-08 ROCKET BODY 4.5 18:37:23 10° N 18:43:31 66° E 18:49:30 10° SSE
STARLINK-1104 4.5 18:40:01 10° WNW 18:43:59 41° N 18:47:56 10° E
Cosmos 1455 Rocket 3.4 18:41:09 10° SSE 18:45:14 42° E 18:49:22 10° NNE
STARLINK-1225 4.1 18:43:14 10° SSW 18:47:01 40° SE 18:50:48 10° ENE
Cosmos 1110 Rocket 4.0 18:41:53 10° NNW 18:47:11 75° ENE 18:52:23 10° SSE
Cosmos 332 Rocket 4.0 18:43:29 10° NNW 18:48:25 78° WSW 18:53:19 10° SSE
STARLINK-1203 3.9 18:45:11 10° SW 18:48:56 43° SE 18:52:41 10° ENE
STARLINK-1144 4.5 18:45:00 10° WNW 18:48:57 42° N 18:52:55 10° E
STARLINK-1072 3.5 18:46:16 10° WNW 18:50:17 80° NNE 18:54:14 10° ESE
Cosmos 1892 Rocket 3.6 18:46:30 10° N 18:51:00 79° E 18:55:29 10° SSE
SL-16 R/B 2.7 18:46:13 10° S 18:51:17 35° ESE 18:56:23 10° NE
STARLINK-1230 4.0 18:47:48 10° SSW 18:51:38 43° SE 18:55:27 10° ENE
Cosmos 2333 Rocket 3.8 18:46:22 10° WSW 18:51:41 39° NW 18:57:00 10° NNE
Cosmos 1626 Rocket 4.4 18:48:34 10° N 18:52:29 30° ENE 18:56:21 10° SE
STARLINK-1103 4.4 18:49:58 10° WNW 18:53:57 43° N 18:57:55 10° E
USA 186 2.2 18:51:17 10° SSE 18:54:35 46° ENE 18:57:51 10° N
STARLINK-1096 3.5 18:50:44 10° WNW 18:54:45 84° NNE 18:58:31 11° ESE
STARLINK-1234 2.7 18:51:53 10° WSW 18:54:52 82° SSE 18:57:53 10° ENE
Cosmos 1953 4.2 18:53:53 10° ESE 18:55:28 13° E 18:57:13 10° ENE
Cosmos 1626 2.6 18:52:00 10° N 18:55:31 39° ENE 18:59:00 10° SSE
ARGOS Delta rocket 4.0 18:50:34 10° SSE 18:55:37 72° ENE 19:00:59 10° N
STARLINK-1243 3.9 18:52:26 10° SW 18:56:18 46° SE 19:00:11 10° ENE
NOSS 2-1 (E) 3.8 18:54:20 10° SW 18:57:40 55° NW 19:01:26 10° NE
Okean 1-7 Rocket 3.5 18:54:30 10° N 18:58:55 82° E 19:03:18 10° S
STARLINK-1101 4.4 18:54:58 10° WNW 18:58:59 44° NNE 19:02:46 11° E
STARLINK-1079 3.5 18:55:12 10° WNW 18:59:14 89° NE 19:02:49 13° ESE
STARLINK-1236 3.8 18:57:03 10° SW 19:00:57 49° SE 19:04:51 10° ENE
ATLAS 2AS CENTAUR R/B 4.3 18:56:49 10° NW 19:03:24 28° NNE 19:09:39 10° ENE
STARLINK-1116 3.5 18:59:40 10° WNW 19:03:42 87° SSW 19:07:08 14° ESE
STARLINK-1102 4.3 18:59:58 10° WNW 19:03:58 46° NNE 19:07:32 13° E
SJ-11-01 4.4 19:00:47 10° SSE 19:05:28 81° WSW 19:10:13 10° NNW
H-2A R/B 2.1 19:01:10 10° SSE 19:06:29 77° ENE 19:11:41 10° N
STARLINK-1111 4.3 19:04:57 10° WNW 19:08:58 47° NNE 19:12:19 14° E
Aureole 2 Rocket 4.4 19:07:04 10° NNE 19:09:14 15° NE 19:10:31 13° ENE
STARLINK-1269 3.6 19:06:22 10° SW 19:10:19 57° SE 19:14:19 10° ENE
Cosmos 883 Rocket 4.5 19:04:16 10° S 19:10:21 63° E 19:16:33 10° NNE
ERBS 3.7 19:09:10 10° W 19:12:20 37° NNW 19:15:32 10° NE
Cosmos 1544 Rocket 3.5 19:08:18 10° S 19:12:38 62° E 19:17:01 10° NNE
STARLINK-1094 3.6 19:08:40 10° WNW 19:12:41 78° SSW 19:15:46 16° SE
Cosmos 1745 Rocket 4.4 19:06:42 10° NNW 19:13:00 71° W 19:19:12 10° S
STARLINK-1073 4.2 19:09:56 10° WNW 19:13:58 48° NNE 19:17:06 16° E
Cosmos 2297 3.7 19:09:13 10° NNW 19:14:55 79° ENE 19:20:37 10° SSE
STARLINK-1200 3.6 19:11:01 10° SW 19:15:00 62° SSE 19:18:56 10° ENE
USA 234 3.4 19:09:11 10° ENE 19:15:32 51° SE 19:21:52 10° SSW
CZ-2C R/B 4.2 19:11:16 10° NNE 19:15:44 39° E 19:20:08 10° SSE
STARLINK-1117 3.6 19:13:11 10° WNW 19:17:11 73° SSW 19:20:06 18° SE
Meteor 2-5 Rocket 4.4 19:12:49 10° NNW 19:18:23 57° W 19:23:48 10° S
STARLINK-1121 4.2 19:14:56 10° WNW 19:18:59 50° NNE 19:21:53 18° E
STARLINK-1192 3.5 19:15:38 10° SW 19:19:39 66° SSE 19:23:25 12° ENE
ADEOS Rocket 4.3 19:13:53 10° N 19:20:30 49° WNW 19:26:27 10° SW
Cosmos 1805 4.4 19:17:31 10° SSW 19:21:18 47° WNW 19:25:06 10° N
Cosmos 2237 Rocket 2.9 19:15:54 10° SW 19:21:26 58° WNW 19:27:02 10° NNE
STARLINK-1078 3.7 19:17:40 10° WNW 19:21:41 68° SSW 19:24:26 19° SE
STARLINK-1106 4.1 19:19:53 10° WNW 19:23:57 52° NNE 19:26:39 20° E
STARLINK-1244 3.5 19:20:25 10° SW 19:24:26 71° SSE 19:28:01 13° ENE
Cosmos 1302 Rocket 4.0 19:19:26 10° NNW 19:24:44 75° ENE 19:29:44 12° SSE
STARLINK-1201 3.0 19:21:33 10° WSW 19:24:49 78° NNW 19:27:31 14° ENE
STARLINK-1108 3.8 19:22:12 10° WNW 19:26:12 64° SSW 19:28:47 21° SE
Cosmos 2278 Rocket 4.2 19:22:02 10° NW 19:26:49 28° WSW 19:31:34 10° SSW
CZ-2C R/B 3.2 19:23:05 10° NNE 19:27:44 32° E 19:32:19 10° SSE
Cosmos 1269 Rocket 4.0 19:23:25 10° SSW 19:28:42 84° ESE 19:34:02 10° NNE
STARLINK-1112 4.0 19:24:53 10° WNW 19:28:58 54° NNE 19:31:27 22° E
STARLINK-1138 3.5 19:25:05 10° SW 19:29:07 76° SSE 19:32:32 14° ENE
STARLINK-1209 3.3 19:27:20 10° W 19:30:11 53° NNW 19:32:14 17° NE
STARLINK-1066 4.2 19:27:37 10° WNW 19:30:32 34° SW 19:32:18 18° SSE
STARLINK-1071 3.9 19:26:44 10° WNW 19:30:43 60° SW 19:33:08 22° SE
STARLINK-1081 4.2 19:28:06 10° WNW 19:30:57 33° SW 19:32:41 19° SSE
STARLINK-1228 3.4 19:28:20 10° W 19:31:09 52° NNW 19:33:09 17° NE
STARLINK-1070 4.2 19:28:33 10° WNW 19:31:24 33° SW 19:33:06 19° SSE
STARLINK-1124 3.9 19:27:38 10° WNW 19:31:44 59° SW 19:34:14 22° SE
STARLINK-1069 4.2 19:28:58 10° WNW 19:31:50 33° SW 19:33:34 19° SSE
STARLINK-1085 4.2 19:29:24 10° WNW 19:32:17 32° SW 19:34:00 19° SSE
STARLINK-1086 4.2 19:29:55 10° WNW 19:32:45 32° SW 19:34:25 19° SSE
STARLINK-1095 4.2 19:30:22 10° WNW 19:33:12 32° SW 19:34:50 19° SSE
STARLINK-1077 4.3 19:30:48 10° WNW 19:33:38 31° SW 19:35:16 19° SSE
Meteor 1-24 Rocket 4.3 19:28:18 10° NNW 19:33:44 56° W 19:38:58 10° S
STARLINK-1143 3.4 19:29:51 10° WSW 19:33:54 80° SSE 19:37:07 16° ENE
STARLINK-1128 4.0 19:29:53 10° WNW 19:34:00 57° NNE 19:36:15 24° E
STARLINK-1075 4.3 19:31:16 10° WNW 19:34:06 31° SW 19:35:42 19° SSE
STARLINK-1093 4.3 19:31:41 10° WNW 19:34:32 31° SW 19:36:10 19° SSE
ARGOS 3.3 19:29:13 10° S 19:34:37 75° WSW 19:40:02 10° NNW
SL-8 R/B 3.7 19:30:08 10° W 19:34:56 80° N 19:38:02 22° E
STARLINK-1074 4.3 19:32:08 10° WNW 19:34:59 31° SW 19:36:36 19° S
STARLINK-1110 4.0 19:31:16 10° WNW 19:35:13 56° SW 19:37:29 23° SE
STARLINK-1087 4.3 19:32:38 10° WNW 19:35:26 30° SW 19:37:00 19° S
Cosmos 2251 Rocket 4.3 19:31:06 10° SSE 19:35:42 30° E 19:40:20 10° NE
STARLINK-1088 4.3 19:33:05 10° WNW 19:35:53 30° SW 19:37:26 19° S
STARLINK-1115 4.4 19:33:31 10° WNW 19:36:20 30° SW 19:37:55 19° S
STARLINK-1076 4.4 19:33:57 10° WNW 19:36:46 30° SW 19:38:20 19° S
STARLINK-1092 4.4 19:34:26 10° WNW 19:37:14 30° SW 19:38:47 19° S
SL-24 R/B 4.1 19:33:03 10° NNE 19:37:41 55° E 19:41:42 10° S
STARLINK-1080 4.4 19:34:55 10° WNW 19:37:41 29° SW 19:39:10 19° S
STARLINK-1090 4.4 19:35:21 10° WNW 19:38:07 29° SW 19:39:36 19° S
STARLINK-1089 4.4 19:35:49 10° WNW 19:38:35 29° SW 19:40:02 19° S
STARLINK-1113 3.9 19:34:52 10° WNW 19:38:58 59° NNE 19:41:02 27° E
STARLINK-1107 4.4 19:36:16 10° W 19:39:01 28° SW 19:40:28 19° S
Cosmos 1470 2.6 19:37:37 10° S 19:41:29 79° E 19:45:23 10° NNE
STARLINK-1119 3.8 19:39:50 10° WNW 19:43:57 62° NNE 19:45:48 30° E
STARLINK-1241 3.5 19:40:18 10° WSW 19:44:20 89° NNW 19:47:06 19° ENE
STARLINK-1122 4.2 19:40:27 10° WNW 19:44:21 48° SW 19:46:17 26° SSE
STARLINK-1233 3.4 19:41:31 10° WSW 19:44:37 56° NNW 19:46:21 23° NE
STARLINK-1212 3.4 19:41:58 10° WSW 19:45:04 56° NNW 19:46:46 23° NE
STARLINK-1105 3.5 19:42:25 10° WSW 19:45:31 55° NNW 19:47:13 23° NE
Cosmos 2315 Rocket 4.0 19:39:24 10° S 19:45:43 90° W 19:52:08 10° N
SL-08 RB Rocket 3.8 19:41:16 10° S 19:45:46 76° WSW 19:50:21 10° NNW
STARLINK-1206 3.5 19:42:55 10° W 19:45:59 55° NNW 19:47:38 24° NE
STARLINK-1247 3.5 19:43:21 10° W 19:46:26 54° NNW 19:48:03 24° NE
STARLINK-1227 3.5 19:43:46 10° W 19:46:52 54° NNW 19:48:30 24° NE
SJ-6B 3.5 19:42:55 10° S 19:46:55 57° W 19:50:59 10° NNW
ISS -3.3 19:43:49 10° WNW 19:47:07 52° NNE 19:48:11 35° ENE
STARLINK-1218 3.5 19:44:16 10° W 19:47:20 54° NNW 19:48:55 25° NE
MetOp-A 4.1 19:42:29 13° SSE 19:47:22 82° ENE 19:52:45 10° NNW
Resurs 1-3 3.5 19:44:43 20° SSE 19:47:40 73° ENE 19:52:03 10° N
STARLINK-1226 3.5 19:44:44 10° W 19:47:48 54° NNW 19:49:23 25° NE
STARLINK-1254 3.5 19:45:08 10° W 19:48:13 53° NNW 19:49:48 25° NE
STARLINK-1215 3.5 19:45:38 10° W 19:48:42 53° NNW 19:50:13 25° NE
STARLINK-1239 3.5 19:44:53 10° WSW 19:48:55 84° NNW 19:51:31 21° ENE
STARLINK-1114 3.8 19:44:50 10° WNW 19:48:58 65° NNE 19:50:36 34° E
STARLINK-1126 4.3 19:45:06 10° WNW 19:48:58 45° SW 19:50:44 27° SSE
STARLINK-1231 3.5 19:46:04 10° W 19:49:08 53° NNW 19:50:39 25° NE
Cosmos 1758 3.3 19:45:18 10° S 19:49:23 88° E 19:53:31 10° N
ERS-1 Rocket 4.5 19:48:48 18° ENE 19:49:41 19° ENE 19:53:08 10° NNE
STARLINK-1232 3.6 19:47:00 10° W 19:50:03 52° NNW 19:51:31 26° NE
STARLINK-1217 3.6 19:47:27 10° W 19:50:31 52° NNW 19:51:58 26° NE
STARLINK-1208 3.6 19:47:52 10° W 19:50:56 52° NNW 19:52:25 26° NE
STARLINK-1229 3.6 19:48:20 10° W 19:51:24 51° NNW 19:52:48 27° NE
STARLINK-1271 3.6 19:48:48 10° W 19:51:52 51° NNW 19:53:16 27° NE
BREEZE-M DEB (TANK) 3.7 19:44:59 10° WNW 19:51:58 74° N 19:53:10 37° E
STARLINK-1270 3.6 19:49:16 10° W 19:52:19 51° NNW 19:53:42 27° NE
IRIDIUM 104 4.2 19:47:13 10° N 19:52:27 70° E 19:56:26 17° SSE
BREEZE M DEB (TANK) 4.4 19:43:09 10° SSW 19:52:37 32° SSE 19:53:50 29° SE
STARLINK-1154 3.6 19:49:42 10° W 19:52:46 50° NNW 19:54:07 27° NE
CZ-2C R/B 3.9 19:48:29 10° S 19:53:23 47° W 19:58:05 10° NNW
STARLINK-1082 4.4 19:49:41 10° WNW 19:53:31 42° SW 19:55:08 28° SSE
STARLINK-1240 3.6 19:49:30 10° WSW 19:53:31 80° NNW 19:55:56 23° ENE
STARLINK-1197 3.6 19:50:36 10° W 19:53:39 50° NNW 19:54:59 28° NE
STARLINK-1130 (DARKSAT) 3.7 19:49:48 10° WNW 19:53:56 69° NNE 19:55:22 38° E
STARLINK-1189 3.6 19:51:04 10° W 19:54:07 49° NNW 19:55:26 28° NE
STARLINK-1187 3.8 19:51:57 10° W 19:54:59 46° NNW 19:56:20 27° NE
STARLINK-1188 3.7 19:51:59 10° W 19:55:01 49° NNW 19:56:17 29° NE
Resurs 01 Rocket 1.6 19:53:05 31° SE 19:55:01 62° ENE 19:59:24 10° N
STARLINK-1198 3.7 19:52:12 10° W 19:55:15 49° NNW 19:56:31 29° NE
Cosmos 2369 Rocket 2.4 19:49:41 10° NNW 19:55:19 55° ENE 19:57:50 31° ESE
STARLINK-1235 3.9 19:52:41 10° W 19:55:42 43° NNW 19:57:05 26° NE
Abrixas rocket 4.3 19:53:39 10° SSW 19:54:14 14° SSW 19:54:14 14° SSW
STARLINK-1199 3.7 19:53:55 10° W 19:56:58 48° NNW 19:58:12 29° NE
STARLINK-1191 3.7 19:54:23 10° W 19:57:26 48° NNW 19:58:39 29° NE
STARLINK-67 4.1 19:55:09 10° WNW 19:57:30 29° NNW 19:58:04 26° NNE
STARLINK-1210 3.7 19:54:49 10° W 19:57:52 48° NNW 19:59:05 30° NE
STARLINK-1100 4.5 19:54:16 10° WNW 19:58:03 39° SW 19:59:31 28° S
STARLINK-1216 3.6 19:54:08 10° WSW 19:58:09 76° NNW 20:00:23 25° ENE
STARLINK-1221 3.7 19:55:17 10° W 19:58:21 48° NNW 19:59:32 30° NE
STARLINK-1219 3.8 19:55:44 10° W 19:58:47 47° NNW 19:59:58 30° NE
STARLINK-1084 3.6 19:54:46 10° WNW 19:58:55 72° NNE 20:00:09 43° E
STARLINK-1222 3.8 19:56:11 10° W 19:59:14 47° NNW 20:00:22 30° NE
STARLINK-1211 3.8 19:56:38 10° W 19:59:41 47° NNW 20:00:48 31° NE
STARLINK-1214 3.8 19:57:06 10° W 20:00:09 46° NNW 20:01:15 31° NE
STARLINK-1245 3.8 19:57:36 10° W 20:00:37 46° NNW 20:01:40 31° NNE
STARLINK-1238 3.8 19:58:01 10° W 20:01:04 46° NNW 20:02:07 31° NNE
IRIDIUM 114 4.2 19:56:22 10° N 20:01:38 83° E 20:05:35 18° S
Meteor 2-15 Rocket 4.3 19:55:41 10° S 20:01:45 87° E 20:07:51 10° N
STARLINK-1205 3.8 19:58:58 10° W 20:01:59 45° NNW 20:02:58 32° NNE
STARLINK-1204 3.8 19:59:24 10° W 20:02:25 45° NNW 20:03:23 32° NNE
STARLINK-1237 3.7 19:58:48 10° WSW 20:02:49 72° NNW 20:04:52 28° NE
STARLINK-1098 3.6 19:59:44 10° WNW 20:03:54 76° NNE 20:04:55 49° E
SPOT 3 Rocket 3.9 20:00:42 12° S 20:05:36 64° WSW 20:10:49 10° NNW
Cosmos 1726 2.5 20:06:29 44° ENE 20:06:29 44° ENE 20:09:35 10° NNE
STARLINK-1202 3.8 20:03:26 10° WSW 20:07:26 68° NNW 20:09:19 30° NE
Meteor 1-21 Rocket 4.1 20:02:25 10° NNW 20:08:02 90° ESE 20:11:31 24° S
Nadezhda 1 Rocket 4.3 20:06:17 30° SE 20:08:52 45° E 20:14:53 10° NNE
STARLINK-1123 3.5 20:04:44 10° WNW 20:08:54 80° NNE 20:09:44 56° ESE
Cosmos 2228 3.8 20:11:02 34° ENE 20:11:02 34° ENE 20:14:11 10° NNE
IRIDIUM 103 4.3 20:05:33 10° N 20:10:48 83° W 20:14:45 18° S
STARLINK-1246 3.9 20:08:33 10° WSW 20:12:35 65° NNW 20:14:18 32° NE
MOS 1 Rocket 3.5 20:07:37 10° NNE 20:12:50 80° ESE 20:18:14 10° S
STARLINK-1097 3.5 20:09:42 10° WNW 20:13:52 85° NNE 20:14:29 63° ESE
Cosmos 292 Rocket 3.7 20:12:52 10° NNW 20:17:40 89° W 20:19:07 46° SSE
Cosmos 1943 3.7 20:19:28 38° E 20:19:28 38° E 20:23:57 10° NE
STARLINK-1099 3.4 20:14:41 10° WNW 20:18:52 90° ENE 20:19:17 71° ESE
Cosmos 1943 Rocket 2.2 20:15:03 10° NNW 20:20:36 79° WSW 20:22:51 37° SSE
STARLINK-1224 4.0 20:17:27 10° WSW 20:21:27 59° NNW 20:22:45 38° NE
NOSS 3-4 (A) 4.4 20:16:30 10° NW 20:22:56 43° NE 20:25:57 30° E
NOSS 3-4 (C) 4.5 20:16:36 10° NW 20:23:02 42° NE 20:26:03 29° E
Cosmos 2074 Rocket 3.9 20:16:51 10° N 20:23:10 89° WSW 20:26:45 28° S
STARLINK-1104 3.4 20:19:41 10° WNW 20:23:51 85° SSW 20:24:04 79° SE
STARLINK-1225 4.1 20:22:12 10° W 20:26:11 57° NNW 20:27:17 41° NE
Cosmos 1328 4.1 20:23:19 10° N 20:26:45 53° NE 20:26:45 53° NE
STARLINK-1203 4.1 20:23:55 10° W 20:27:48 53° NNW 20:28:44 41° NNE
STARLINK-1144 3.5 20:24:39 10° WNW 20:28:48 80° SSW 20:28:50 80° SSW
Cosmos 1437 4.1 20:26:42 10° NNW 20:28:31 33° NNW 20:28:31 33° NNW
STARLINK-1230 4.1 20:26:52 10° W 20:30:50 54° NNW 20:31:44 43° NNE
Cosmos 1953 2.8 20:29:29 28° SSW 20:31:20 58° WNW 20:35:17 10° N
Meteor 2-10 4.0 20:28:33 23° S 20:32:00 89° ESE 20:37:34 10° NNE
SPOT 1/Viking Rocket 3.7 20:32:06 49° E 20:32:30 51° ENE 20:37:33 10° N
NOSS 3-3 (A) 3.9 20:27:08 10° SSW 20:32:50 58° ESE 20:39:16 10° NE
NOSS 3-3 (C) 3.9 20:27:15 10° SSW 20:32:57 58° ESE 20:39:23 10° NE
STARLINK-1103 3.6 20:29:37 10° WNW 20:33:37 74° WSW 20:33:37 74° WSW
Spot 2 Rocket 3.4 20:33:07 59° SE 20:34:04 78° ENE 20:39:12 10° NNW
Cosmos 2084 Rocket 3.6 20:30:32 10° NW 20:34:59 68° SW 20:35:19 64° SSW
SL-16 R/B 3.4 20:29:56 10° SW 20:35:19 43° NW 20:40:43 10° NNE
STARLINK-1243 4.2 20:31:36 10° W 20:35:33 52° NNW 20:36:16 45° NNE
Cosmos 1610 Rocket 4.4 20:30:57 10° N 20:37:13 78° E 20:39:03 48° SSE
STARLINK-1101 3.8 20:34:37 10° WNW 20:38:25 66° WSW 20:38:25 66° WSW
STARLINK-1236 4.2 20:36:18 10° W 20:40:14 50° NNW 20:40:46 47° N
IGS 5A 4.0 20:42:14 50° NNE 20:42:14 50° NNE 20:45:35 10° N
Aureole 2 Rocket 3.5 20:39:55 10° NNW 20:42:44 42° WNW 20:42:44 42° WNW
STARLINK-1102 4.0 20:39:36 10° WNW 20:43:11 58° WSW 20:43:11 58° WSW
Terra 3.0 20:49:36 31° NE 20:49:36 31° NE 20:52:56 10° N
STARLINK-1111 4.2 20:44:35 10° WNW 20:47:58 51° W 20:47:58 51° W
STARLINK-1269 4.4 20:45:47 10° W 20:49:42 47° NNW 20:49:49 47° N
Cosmos 2341 Rocket 4.1 20:47:05 10° N 20:53:22 58° ENE 20:53:51 57° E
STARLINK-1073 4.5 20:49:35 10° WNW 20:52:45 45° W 20:52:45 45° W
Cosmos 1703 4.0 20:49:58 10° NNW 20:53:09 52° NW 20:53:09 52° NW
Cosmos 1726 Rocket 4.0 20:55:09 55° N 20:55:09 55° N 20:58:39 10° N
STARLINK-1200 4.5 20:50:32 10° W 20:54:21 46° NNW 20:54:21 46° NNW
ATLAS 2AS CENTAUR R/B 3.0 20:48:20 10° NW 20:55:59 62° NE 20:57:42 50° E
Meteor 1-16 Rocket 4.3 20:54:16 32° SSW 20:56:42 67° WNW 21:02:10 10° N
Cosmos 1603 3.6 20:53:26 26° SSW 20:56:45 87° WNW 21:02:25 10° NNE
Cosmos 1825 Rocket 4.3 20:53:09 10° NNW 20:57:24 47° W 20:57:49 45° WSW
USA 234 3.6 20:52:14 10° NE 20:58:42 65° NNW 21:05:09 10° WSW
Aureole 1 Rocket 4.3 21:07:14 61° SE 21:07:54 64° ESE 21:14:32 10° NNE
CZ-2C R/B 3.9 21:03:18 10° N 21:08:05 38° WNW 21:12:49 10° SW
COSMOS 2455 3.6 21:05:13 10° NNW 21:10:54 40° NE 21:11:09 40° NE
Meteor 1-11 4.3 21:05:45 10° NNW 21:11:32 72° W 21:12:06 67° SW
Cosmos 1953 Rocket 4.4 21:08:46 10° NNW 21:12:43 47° WNW 21:12:43 47° WNW
Cosmos 2218 Rocket 4.2 21:15:59 10° N 21:21:25 56° NE 21:21:25 56° NE
Cosmos 1656 Rocket 3.8 21:17:13 10° NNW 21:22:37 69° W 21:22:37 69° W
ISS -0.6 21:20:42 10° WNW 21:21:09 13° WNW 21:21:09 13° WNW
ERS-1 Rocket 3.4 21:28:47 58° NW 21:28:47 58° NW 21:33:00 10° NNW
Resurs 01 Rocket 4.1 21:30:38 14° WSW 21:31:57 15° W 21:34:34 10° NW
Cosmos 2181 Rocket 4.2 21:33:10 61° NE 21:33:10 61° NE 21:38:22 10° NNE
SPOT 5 4.0 21:35:19 37° NNW 21:35:19 37° NNW 21:38:02 10° NNW
Cosmos 2369 Rocket 3.7 21:34:19 10° NW 21:38:58 27° WSW 21:39:39 26° WSW
SL-8 Rocket 4.3 21:50:54 10° NNW 21:56:35 65° WNW 21:56:35 65° WNW
Cosmos 1943 4.4 22:01:06 32° W 22:02:46 39° NW 22:08:06 10° NNE
CZ-4C R/B 4.4 21:57:32 10° NW 22:02:55 26° NNE 22:06:33 18° ENE
Cosmos 2366 rocket 4.3 21:58:14 10° NNW 22:03:18 60° NW 22:03:18 60° NW
Mayak 1.6 22:06:27 10° NNE 22:06:55 13° NNE 22:06:55 13° NNE
NOSS 3-4 (A) 4.1 22:07:20 10° NW 22:13:24 59° W 22:13:24 59° W
NOSS 3-4 (C) 4.1 22:07:25 10° NW 22:13:29 59° W 22:13:29 59° W
Terra 3.9 22:28:29 23° NW 22:28:29 23° NW 22:30:41 10° NNW
Cosmos 1697 Rocket 4.3 22:22:26 10° NNW 22:26:03 28° NNE 22:26:03 28° NNE
USA 234 4.3 22:35:07 10° ENE 22:41:08 41° N 22:47:09 10° WNW
ATLAS 2AS CENTAUR R/B 3.9 22:39:52 10° NW 22:45:07 34° W 22:45:07 34° W
Cosmos 1980 Rocket 4.0 22:47:34 10° N 22:50:54 25° NNE 22:50:54 25° NNE
COSMOS 2455 4.4 22:51:12 10° NW 22:54:18 29° WNW 22:54:18 29° WNW
ATLAS 5 CENTAUR R/B 4.5 23:39:11 15° NNE 23:39:11 15° NNE 23:40:12 10° NNE
